map of BEG home
BEG - Airport
Location
City:  Belgrade, Serbia
Near (Alt.):Beograd
Name:Belgrade Nikola Tesla
Old (Alt.):Surcin
ICAO:LYBE
IATA:BEG

Details
Type:Airport (Aerodrome, Airfield)
Use:Public/Civil, International (customs port of entry)
Latitude:4449'06"N (44.818444)
Longitude:2018'33"E (20.309139)
Datum:WGS 1984
Elevation:335 ft (102 m)
Variation:4.71E (WMM2015 magnetic declination)
0.11 annual change
Runways:1
Longest:11155 × 148 ft (3400 × 45 m), paved

Time
Time Zone:UTC+1 (DST+2)
Local Time:

Weather
METAR:LYBE 270030Z 31010KT CAVOK 14/07 Q1018 NOSIG
TAF:LYBE 262300Z 2700/2724 03008KT CAVOK TX23/2714Z TN11/2704Z
TEMPO 2700/2703 33012KT

Related Locations
Nearby:
Farthest:CHT: 11608 mi / 18681 km
Waitangi [Tuuta], CIT, NZ

Find:

   beyond  
but within

Other Information
Maps:
NOTAMs:
Links:
Sources:

  
flag of Serbia
flag of Belgrade
  

Sectional Chart

Flight Planning
at skyvector.com

Satellite Image

Google Maps Satellite view

 

Copyright © 2004-2018 Karl L. Swartz. All rights reserved.
The Great Circle Mapper name and logo are trademarks of the Great Circle Mapper.
All other trademarks mentioned herein belong to their respective owners.
Please see credits for attibutions and further copyright information.

  Follow gcmap on Facebook Follow gcmap on Twitter Follow gcmap on Google+ GCmap on LinkedIn

hCard Microformat

Geo Microformat